Погода в Йонаго

Япония     35°25′52″N   133°19′47″E
темп.,
°C
ветер,
м/с
пор.,
м/с
влажн.,
%
обл.,
%
осадки,
мм/ч
давл.,
гПа
погр.,
м
9 мая, вс
вс900:00+18юз61151100 0.0 1004268
03:00+18зюз9177371 0.0 1004757
06:00+16з8138124 0.3 1006848
09:00+17з812520 0.3 1008862
12:00+17зсз810510 0.0 1009910
15:00+17зсз710490 0.0 1010983
18:00+17зюз35490 0.0 1009417
21:00+14ююз46560 0.0 1011117
10 мая, пн
пн1000:00+14ююз59510 0.0 1011191
03:00+13юз48610 0.0 1012200
06:00+13юз46690 0.0 1014140
09:00+17з2354100 0.0 1013362
12:00+17ссз5554100 0.0 1014564
15:00+17с3358100 0.0 1014503
18:00+14св8883100 0.0 1015586
21:00+14всв5679100 0.0 1016653
11 мая, вт
вт1100:00+13всв4582100 0.1 1016532
03:00+13вюв2383100 0.4 1016260
06:00+12юв228798 0.9 1017226
09:00+14всв457397 0.9 1017475
12:00+15св7868100 0.0 1018536
15:00+16всв81061100 0.0 1017519
18:00+15всв81066100 0.0 1018416
21:00+14в5765100 0.0 1018275
12 мая, ср
ср1200:00+13в4654100 0.0 1018210
03:00+13в4652100 0.0 1017253
06:00+13в575626 0.0 1018293
09:00+16всв675365 0.0 1017410
12:00+19всв575960 0.0 1016560
15:00+19св466582 0.0 1014598
18:00+20ююв5764100 0.0 1015259
21:00+18ююв4774100 0.0 1016233
13 мая, чт
чт1300:00+18ююв377997 0.0 1015253
03:00+17в1481100 0.0 1014165
06:00+17в1381100 0.0 1014181
09:00+17всв358343 0.1 1014230
12:00+19в5776100 0.0 1013423
15:00+18в4680100 0.0 1012330
18:00+18в3483100 0.0 1011230
21:00+17в2288100 0.0 101233